Location: *
(45.8589°N, 4.7139°E)
Time: 15:23:52
(UTC+00:00)

Cosmos 1934 Rocket - Pass Details

Date: 09 April 2020
Orbit: 937 x 1000 km, 83.0° (Epoch: 27 May)

Event Time Altitude Azimuth Distance (km) Brightness Sun altitude
Rises 22:03:14 0° 349° (N) 3,693 8.0 -31.7°
Reaches altitude 10° 22:05:48 10° 347° (NNW) 2,732 7.1 -31.9°
Enters shadow 22:11:27 64° 296° (WNW) 1,063 4.2 -32.4°
